Content
SEND FEEDBACK

Daily
Averages
Monthly
Summary
United States of America

CLAYTON, ALABAMA


Home > North America > United States > Alabama
Elevation: 503 feet     Latitude: 31 53N     Longitude: 085 28W

WEATHER
 
SELECT A DAY
Number of Records: 93,715;   Date Range: 8/26/08 - 12/17/14
 
SHARE

PRINT THIS DATA

[ ← Previous Day ]
WEATHER ALMANAC - FEBRUARY 13, 2013
[ Next Day → ]
[ °C ]   °F
Weather ElementAverageHighLow
Temperature53.1 °F60.1 °F (8:58 am)44.1 °F (11:58 pm)
Dewpoint50.4 °F57.9 °F (5:58 am)41 °F (10:58 pm)
Humidity91.4 %100 % (1:10 am)65 % (11:58 am)
Wind Speed4.8 mph11.5 mph (11:58 am)
Wind Gust25.3 mph (2:49 pm)
Weather ElementAverage
Visibility6.6 mi
Wind DirectionWNW (276.2 °)

Weather ElementTotal
Precipitation0.88 in
Heating Degree Days12.9 (Base 65)
Growing Degree Days2.1 (Base 50)
Averaged from 45 records on February 13, 2013
WEATHER CONDITIONS BREAKOUT
WIND DIRECTION BREAKOUT
WEATHER BY HOUR - FEBRUARY 13, 2013
[ °C ]   °F
Local TimeTemperatureDewpointHumidityBarometerVisibilityWind DirectionWind SpeedGust SpeedPrecipitationEventsConditions
1:10 AM53.6 °F53.6 °F100 %10.0 miCalm0.00 inOvercast
1:21 AM53.6 °F53.6 °F100 %10.0 miCalm0.00 inOvercast
1:58 AM54.0 °F54.0 °F100 %4.0 miCalm0.00 inOvercast
2:58 AM54.0 °F54.0 °F100 %1.8 miCalmOvercast
3:24 AM53.6 °F53.6 °F100 %0.0 miCalm (2013°)Mist0
3:58 AM54.0 °F54.0 °F100 %0.0 mi3.5 (2013°)Mist170
4:58 AM55.0 °F55.0 °F100 %0.0 miCalm (2013°)Mist0
5:42 AM57.2 °F55.4 °F94 %1.5 miWest (270°)8.1 mphOvercast
5:45 AM57.2 °F57.2 °F100 %3.0 miWest (260°)8.1 mphOvercast
5:58 AM57.9 °F57.9 °F100 %9.0 miWest (270°)8.1 mphOvercast
6:03 AM57.2 °F57.2 °F100 %10.0 miWest (270°)10.4 mph16.1 mphMostly Cloudy
6:08 AM57.2 °F57.2 °F100 %10.0 miWest (270°)9.2 mph19.6 mphMostly Cloudy
6:15 AM57.2 °F57.2 °F100 %10.0 miWest (270°)6.9 mph16.1 mphMostly Cloudy
6:25 AM57.2 °F55.4 °F94 %10.0 miWest (270°)6.9 mphScattered Clouds
6:58 AM57.9 °F55.9 °F93 %10.0 miCalmClear
7:58 AM59.0 °F55.9 °F90 %10.0 miWest (260°)4.6 mphScattered Clouds
8:58 AM60.1 °F52.0 °F75 %10.0 miVariable6.9 mph17.3 mphScattered Clouds
9:58 AM60.1 °F48.9 °F67 %10.0 miWest (280°)9.2 mphClear
10:58 AM60.1 °F48.9 °F67 %29.88 in10.0 miVariable5.8 mphPartly Cloudy
11:58 AM57.9 °F46.0 °F65 %29.87 in10.0 miWest (280°)11.5 mph19.6 mphMostly Cloudy
12:23 PM57.2 °F46.4 °F67 %29.88 in10.0 miVariable5.8 mph0.00 inOvercast
12:29 PM57.2 °F46.4 °F67 %29.88 in10.0 miVariable3.5 mph0.00 inOvercast
12:58 PM55.0 °F50.0 °F83 %29.86 in5.0 miWest (280°)4.6 mph0.02 inRainLight Rain
1:42 PM53.6 °F50.0 °F88 %29.86 in2.5 miWest (260°)4.6 mph0.04 inRainRain
1:50 PM53.6 °F50.0 °F88 %29.86 in4.0 miVariable3.5 mph0.06 inRainRain
1:58 PM52.0 °F51.1 °F97 %29.86 in3.0 miWest (260°)4.6 mph0.07 inRainRain
2:09 PM51.8 °F51.8 °F100 %29.87 in3.0 miWest (280°)6.9 mph0.02 inRainRain
2:25 PM51.8 °F51.8 °F100 %29.85 in3.0 miVariable4.6 mph0.05 inRainRain
2:29 PM51.8 °F50.0 °F94 %29.85 in4.0 miVariable3.5 mph0.05 inRainLight Rain
2:33 PM51.8 °F50.0 °F94 %29.88 in4.0 miWNW (290°)6.9 mph0.06 inRainLight Rain
2:40 PM51.8 °F50.0 °F94 %29.89 in2.5 miNW (310°)9.2 mph0.08 inRainRain
2:49 PM50.0 °F48.2 °F94 %29.90 in4.0 miWest (280°)10.4 mph25.3 mph0.09 inRainLight Rain
2:58 PM50.0 °F46.9 °F89 %29.88 in5.0 miVariable3.5 mph23.0 mph0.10 inRainRain
3:40 PM48.2 °F46.4 °F93 %29.90 in4.0 miWNW (290°)4.6 mph0.04 inRainRain
3:47 PM48.2 °F46.4 °F93 %29.86 in3.0 miCalm0.06 inRainRain
3:52 PM48.2 °F46.4 °F93 %29.90 in3.0 miWest (280°)5.8 mph0.07 inRainRain
3:58 PM48.0 °F46.0 °F93 %29.91 in7.0 miVariable5.8 mph0.07 inRainLight Rain
4:58 PM48.0 °F46.0 °F93 %29.91 in10.0 miWest (260°)5.8 mph0.00 inClear
5:58 PM48.0 °F46.0 °F93 %29.99 in10.0 miWest (270°)3.5 mphPartly Cloudy
6:58 PM48.0 °F46.0 °F93 %30.04 in10.0 miCalmClear
7:58 PM46.9 °F46.9 °F100 %10.0 miCalmClear
8:58 PM46.9 °F46.9 °F100 %10.0 miWNW (300°)3.5 mphClear
9:58 PM46.0 °F42.1 °F86 %10.0 miNNW (330°)4.6 mphClear
10:58 PM46.0 °F41.0 °F83 %10.0 miCalmClear
11:58 PM44.1 °F42.1 °F93 %10.0 miCalmClear
Hourly data recorded from KEUF, located miles away from Clayton, Alabama







STORIES FROM OUR PARTNERS